Location: Pian di Sc�
(43.6333°N, 11.5500°E)
Time: 18:49:06
(UTC+00:00)

Cosmos 1354 Rocket - Pass Details

Date: 07 August 2020
Orbit: 765 x 783 km, 74.0° (Epoch: 20 September)

Event Time Altitude Azimuth Distance (km) Brightness Sun altitude
Exits shadow 00:16:37 61° 317° (NW) 886 4.3 -28.6°
Drops below altitude 10° 00:21:32 10° 15° (NNE) 2,348 7.5 -28.4°
Sets 00:23:57 0° 18° (NNE) 3,279 8.5 -28.2°
